OneWeb SL0650

operational
NORAD ID: 55813 Int'l Des: 2023-029 Owner: ONEWEBN Country: UK Constellation: oneweb
LEOCIRCULARPOLARONEWEB_TYPE

关于 OneWeb SL0650

正在加载描述...

实时位置

正在加载3D地球...

即将过境

高度历史

Altitude vs Time

uPlot chart will show altitude changes over time

两行轨道根数

1 55813U 23029T 25350.28343073 .00000018 00000-0 11526-4 0 9991
2 55813 87.9191 341.3749 0001961 73.0074 287.1273 13.19723914134770
Epoch: Dec 16, 2025 • Age: 15 hours

当前状态

高度 1187.9 km
速度 7.26 km/s
星下点 2.01°N, 64.98°W
发射日期 Mar 9, 2023
运行时间 2.7 years
类型 internet

技术详情

分类 Payload
质量 148.00 kg
干质量 140.00 kg
总质量 148.00 kg
长度 1.30 m
直径 1.00 m
跨度 5.00 m
形状 Trapezoid+2 pan
制造商 ONEWUS
平台类型 ARROW
阶段状态 In Orbit
所有者/国家 ONEWEBN/UK

大型星座

Loading constellations...